This demonstration page uses our WeatherBlox Daily Observations layout. Learn more.

Left ArrowRight Arrow

Hourly Observations for November 29, 2020

Temp ( °F °C ) Dew Point ( °F °C ) Humidity (%) Winds ( mph kmh ) Pressure ( in mb ) Visibility ( mi km ) Precip ( " mm )
12:54 am 00:54 Clear 34 1.1 27 -2.8 76 76 SSW 3 6 30.01 1016 10 16.0934 0 0
1:54 am 01:54 Clear 35 1.7 27 -2.8 72 72 SSW 7 11 30 1016 10 16.0934 0 0
2:54 am 02:54 Clear 36 2.2 28 -2.2 73 73 NW 3 6 30.02 1017 10 16.0934 0 0
3:54 am 03:54 Clear 36 2.2 26 -3.3 67 67 NW 9 15 30.04 1017 10 16.0934 0 0
4:54 am 04:54 Clear 38 3.3 26 -3.3 62 62 NNW 16 26 30.07 1018 10 16.0934 0 0
5:54 am 05:54 Clear 39 3.9 25 -3.9 57 57 N 22 35 30.12 1020 10 16.0934 0 0
6:54 am 06:54 Clear 38 3.3 24 -4.4 57 57 N 25 41 30.18 1022 10 16.0934 0 0
7:54 am 07:54 Sunny 36 2.2 24 -4.4 62 62 N 20 31 30.25 1024 10 16.0934 0 0
8:54 am 08:54 Sunny 37 2.8 23 -5 57 57 NNW 26 43 30.3 1026 10 16.0934 0 0
9:54 am 09:54 Sunny 38 3.3 22 -5.6 52 52 N 29 46 30.32 1027 10 16.0934 0 0
10:54 am 10:54 Mostly Sunny 40 4.4 22 -5.6 49 49 N 31 50 30.34 1027 10 16.0934 0 0
11:54 am 11:54 Sunny 40 4.4 20 -6.7 45 45 N 32 52 30.34 1027 10 16.0934 0 0
12:54 pm 12:54 Sunny 41 5 19 -7.2 41 41 N 29 46 30.34 1028 10 16.0934 0 0
1:54 pm 13:54 Sunny 41 5 18 -7.8 39 39 NNW 30 48 30.35 1028 10 16.0934 0 0
2:54 pm 14:54 Sunny 41 5 17 -8.3 38 38 NNW 24 39 30.34 1027 10 16.0934 0 0
3:54 pm 15:54 Sunny 39 3.9 16 -8.9 39 39 NNW 22 35 30.36 1028 10 16.0934 0 0
4:54 pm 16:54 Sunny 37 2.8 14 -10 39 39 NNW 20 31 30.38 1029 10 16.0934 0 0
5:54 pm 17:54 Clear 34 1.1 14 -10 44 44 NNW 15 24 30.41 1030 10 16.0934 0 0
6:54 pm 18:54 Clear 32 0 15 -9.4 50 50 NNW 14 22 30.42 1030 10 16.0934 0 0
7:54 pm 19:54 Clear 31 -0.6 15 -9.4 52 52 NNW 13 20 30.44 1031 10 16.0934 0 0
8:54 pm 20:54 Clear 29 -1.7 15 -9.4 56 56 NNW 10 17 30.45 1031 10 16.0934 0 0
9:54 pm 21:54 Clear 29 -1.7 15 -9.4 56 56 NW 8 13 30.45 1031 10 16.0934 0 0
10:54 pm 22:54 Clear 26 -3.3 13 -10.6 57 57 WNW 3 6 30.45 1031 10 16.0934 0 0
11:54 pm 23:54 Clear 24 -4.4 13 -10.6 62 62 WNW 3 6 30.46 1031 10 16.0934 0 0

Powered by AerisWeather